Central Coast from McInnes Island to Pine Island: Past 24 Hour Conditions

 

South Moresby - 46147

08:00 PM PDT 16 October 2018Buoy position: 51.83N 131.23W
Disclaimer

This table is a summary of hourly weather conditions for the past 24 hours.
Please note that these observations might not always be representative of weather conditions over their associated marine area.

Date / Time
(PDT)
Wind(knots) Wave height(m) Wave period(s) Pressure(kPa) Air tempC) Water tempC)
16 October 2018
20:00 SSE 6 gust 8 2.6 16.0 102.0 13 13
19:00 SSE 8 gust 12 2.5 16.0 102.0 13 12
18:00 SSE 10 gust 12 2.3 17.0 102.0 13 12
17:00 SE 10 gust 12 2.5 17.0 102.0 13 12
16:00 SE 10 gust 12 2.3 17.0 102.1 13 13
15:00 SE 10 gust 12 2.1 9.0 102.1 14 12
14:00 SE 14 gust 18 2.3 10.0 102.1 14 12
13:00 SE 14 gust 18 2.2 8.0 102.2 14 12
12:00 ESE 12 gust 16 2.4 9.0 102.2 14 13
11:00 ESE 12 gust 14 2.2 10.0 102.3 14 13
10:00 ESE 12 gust 14 2.2 8.0 102.3 14 12
9:00 ESE 12 gust 16 2.2 9.0 102.3 13 12
8:00 SE 12 gust 14 2.1 9.0 102.3 13 12
7:00 ESE 12 gust 14 2.1 9.0 102.3 13 12
6:00 ESE 12 gust 14 1.8 10.0 102.3 13 12
5:00 SE 12 gust 16 1.8 10.0 102.3 13 12
4:00 ESE 12 gust 16 1.8 8.0 102.4 13 12
3:00 ESE 10 gust 12 1.9 10.0 102.4 13 12
2:00 ESE 12 gust 14 2.0 11.0 102.4 13 13
1:00 ESE 12 gust 14 1.9 10.0 102.4 13 13
0:00 ESE 12 gust 14 2.0 11.0 102.4 13 13
15 October 2018
23:00 ESE 12 gust 14 1.9 11.0 102.5 13 13
22:00 E 10 gust 12 1.9 10.0 102.5 13 13
21:00 E 12 gust 14 2.0 9.0 102.4 13 13
20:00 E 12 gust 16 2.0 8.0 102.4 13 13

Zoom-in to make a selection

Map of Pacific - North Coast marine weather areas Middle Nomad - 46004 South Nomad - 46036 Dixon Entrance Central - 46145 South Moresby - 46147 Nanakwa Shoal - 46181 North Hecate Strait - 46183 North Nomad - 46184 South Hecate Strait - 46185 West Sea Otter - 46204 West Dixon Entrance - 46205 East Dellwood - 46207 West Moresby - 46208 Sartine Island Cape St.James Kindakun Rocks Langara Island Masset Municipal Airport Rose Spit Sandspit Airport Bella Bella Airport Bella Coola Airport Bonilla Island Cathedral Point Cumshewa Island Grey Islet Holland Rock Lucy Islands Lightstation Prince Rupert Airport
Legend:
buoy Buoy
land station Land Station

Pacific - North Coast Area

Another Region

What we are doing

Date modified: